| time (UTC) | temp F | wind direction | speed MPH | gust MPH | rain 1hr in | rain 24hr in | rain mn in | humidity % | barometer mb |
| 20260504234620 | 55 | 189 | 5.0 | 9.0 | 0.00 | 0.00 | 0.00 | 73 | 1010.1 |
| 20260504233120 | 56 | 227 | 7.0 | 11.0 | 0.00 | 0.00 | 0.00 | 70 | 1010.0 |
| 20260504231618 | 57 | 200 | 7.0 | 15.0 | 0.00 | 0.00 | 0.00 | 68 | 1009.7 |
| 20260504230115 | 57 | 218 | 3.0 | 10.0 | 0.00 | 0.00 | 0.00 | 66 | 1009.8 |
| 20260504224612 | 58 | 246 | 13.0 | 19.0 | 0.00 | 0.00 | 0.00 | 63 | 1009.7 |
| 20260504223107 | 59 | 90 | 0.0 | 7.0 | 0.00 | 0.00 | 0.00 | 64 | 1009.6 |
| 20260504221605 | 61 | 134 | 0.0 | 9.0 | 0.00 | 0.00 | 0.00 | 58 | 1009.3 |
| 20260504220101 | 62 | 177 | 5.0 | 9.0 | 0.00 | 0.00 | 0.00 | 56 | 1009.3 |
| 20260504214556 | 61 | 232 | 4.0 | 14.0 | 0.00 | 0.00 | 0.00 | 55 | 1009.3 |
| 20260504213052 | 62 | 252 | 5.0 | 18.0 | 0.00 | 0.00 | 0.00 | 56 | 1009.3 |
| 20260504211548 | 63 | 175 | 0.0 | 18.0 | 0.00 | 0.00 | 0.00 | 55 | 1009.1 |
| 20260504210044 | 63 | 232 | 6.0 | 15.0 | 0.00 | 0.00 | 0.00 | 54 | 1009.1 |
| 20260504204544 | 65 | 197 | 7.0 | 9.0 | 0.00 | 0.00 | 0.00 | 53 | 1009.3 |
| 20260504203043 | 65 | 81 | 2.0 | 10.0 | 0.00 | 0.00 | 0.00 | 52 | 1008.8 |
| 20260504201539 | 65 | 324 | 2.0 | 12.0 | 0.00 | 0.00 | 0.00 | 52 | 1008.9 |
| 20260504200036 | 64 | 155 | 3.0 | 17.0 | 0.00 | 0.00 | 0.00 | 50 | 1008.9 |
| 20260504194531 | 67 | 212 | 8.0 | 13.0 | 0.00 | 0.00 | 0.00 | 44 | 1008.8 |
| 20260504193028 | 66 | 186 | 7.0 | 15.0 | 0.00 | 0.00 | 0.00 | 46 | 1008.9 |
| 20260504191527 | 65 | 213 | 8.0 | 15.0 | 0.00 | 0.00 | 0.00 | 45 | 1008.9 |
| 20260504190026 | 65 | 232 | 13.0 | 25.0 | 0.00 | 0.00 | 0.00 | 43 | 1009.0 |
| 20260504184521 | 66 | 241 | 12.0 | 16.0 | 0.00 | 0.00 | 0.00 | 41 | 1009.0 |
| 20260504183018 | 67 | 223 | 12.0 | 19.0 | 0.00 | 0.00 | 0.00 | 43 | 1009.0 |
| 20260504181515 | 66 | 200 | 4.0 | 15.0 | 0.00 | 0.00 | 0.00 | 44 | 1009.3 |
| 20260504180010 | 66 | 252 | 11.0 | 19.0 | 0.00 | 0.00 | 0.00 | 43 | 1009.4 |
| 20260504174508 | 67 | 252 | 7.0 | 14.0 | 0.00 | 0.00 | 0.00 | 39 | 1009.6 |
| 20260504173005 | 66 | 228 | 7.0 | 22.0 | 0.00 | 0.00 | 0.00 | 38 | 1009.4 |
| 20260504171500 | 66 | 289 | 7.0 | 16.0 | 0.00 | 0.00 | 0.00 | 38 | 1009.4 |
| 20260504081302 | 47 | 336 | 2.0 | 4.0 | 0.00 | 0.00 | 0.00 | 67 | 1011.1 |
| 20260504045721 | 45 | 201 | 2.0 | 3.0 | 0.00 | 0.00 | 0.00 | 65 | 1010.8 |
| 20260504044216 | 45 | 297 | 1.0 | 2.0 | 0.00 | 0.00 | 0.00 | 64 | 1011.2 |
| 20260504042713 | 46 | 331 | 1.0 | 5.0 | 0.00 | 0.00 | 0.00 | 62 | 1011.1 |
| 20260504041213 | 45 | 307 | 3.0 | 3.0 | 0.00 | 0.00 | 0.00 | 63 | 1011.0 |
| 20260504035709 | 45 | 319 | 0.0 | 3.0 | 0.00 | 0.00 | 0.00 | 64 | 1010.6 |
| 20260504034207 | 46 | 260 | 2.0 | 7.0 | 0.00 | 0.00 | 0.00 | 61 | 1010.5 |
| 20260504032705 | 46 | 318 | 3.0 | 6.0 | 0.00 | 0.00 | 0.00 | 62 | 1010.6 |
| 20260504031201 | 46 | 238 | 3.0 | 4.0 | 0.00 | 0.00 | 0.00 | 59 | 1010.5 |
| 20260504025657 | 46 | 277 | 1.0 | 3.0 | 0.00 | 0.00 | 0.00 | 58 | 1010.3 |
| 20260504024153 | 46 | 207 | 3.0 | 5.0 | 0.00 | 0.00 | 0.00 | 58 | 1010.4 |
| 20260504022648 | 47 | 234 | 0.0 | 5.0 | 0.00 | 0.00 | 0.00 | 58 | 1010.3 |
| 20260504021144 | 47 | 220 | 1.0 | 3.0 | 0.00 | 0.00 | 0.00 | 57 | 1010.4 |
| 20260504015640 | 47 | 180 | 1.0 | 5.0 | 0.00 | 0.00 | 0.00 | 57 | 1010.1 |
| 20260504014135 | 48 | 176 | 2.0 | 3.0 | 0.00 | 0.00 | 0.00 | 54 | 1010.1 |
| 20260504012633 | 48 | 195 | 0.0 | 3.0 | 0.00 | 0.00 | 0.00 | 52 | 1009.9 |
| 20260504011130 | 47 | 0 | 0.0 | 2.0 | 0.00 | 0.00 | 0.00 | 55 | 1009.7 |
| 20260504005630 | 48 | 342 | 1.0 | 3.0 | 0.00 | 0.00 | 0.00 | 48 | 1009.4 |
| 20260504004128 | 49 | 0 | 1.0 | 2.0 | 0.00 | 0.00 | 0.00 | 47 | 1009.3 |
| 20260504002624 | 50 | 355 | 6.0 | 6.0 | 0.00 | 0.00 | 0.00 | 44 | 1009.1 |
| 20260504001120 | 50 | 348 | 5.0 | 6.0 | 0.00 | 0.00 | 0.00 | 44 | 1008.9 |
| 20260503235619 | 51 | 11 | 1.0 | 5.0 | 0.00 | 0.00 | 0.00 | 43 | 1008.7 |